Location: Arcadia
(34.1397°N, 118.0353°W)
Time: 22:30:27
(UTC+00:00)

Cosmos 2219 Rocket - Pass Details

Date: 08 September 2024
Orbit: 828 x 845 km, 71.0° (Epoch: 13 October)

Event Time Altitude Azimuth Distance (km) Brightness Sun altitude
Rises 12:49:23 0° 341° (NNW) 3,395 5.3 -9.3°
Reaches altitude 10° 12:51:51 10° 344° (NNW) 2,454 4.6 -8.8°
Maximum altitude 12:57:28 71° 68° (ENE) 879 2.6 -7.7°
Drops below altitude 10° 13:03:02 10° 153° (SSE) 2,429 4.8 -6.5°
Sets 13:05:28 0° 155° (SSE) 3,357 5.5 -6.0°
